Time,TemperatureF,DewpointF,PressureIn,WindDirection,WindDirectionDegrees,WindSpeedMPH,WindSpeedGustMPH,Humidity,HourlyPrecipIn,Conditions,Clouds,dailyrainin,SoftwareType,DateUTC
2013-03-01 00:07:00,50.4,13.0,30.40,East,79,0.0,1.0,22,0.00,,,0.00,weatherlink.com 1.10,2013-03-01 08:07:00,
2013-03-01 00:22:00,49.4,11.0,30.40,East,79,3.0,5.0,21,0.00,,,0.00,weatherlink.com 1.10,2013-03-01 08:22:00,
2013-03-01 00:37:00,51.2,11.0,30.40,ENE,74,4.0,8.0,20,0.00,,,0.00,weatherlink.com 1.10,2013-03-01 08:37:00,
2013-03-01 00:52:00,50.0,11.0,30.41,ENE,71,0.0,2.0,21,0.00,,,0.00,weatherlink.com 1.10,2013-03-01 08:52:00,
2013-03-01 01:07:00,50.2,11.0,30.42,ENE,71,0.0,0.0,21,0.00,,,0.00,weatherlink.com 1.10,2013-03-01 09:07:00,
2013-03-01 01:23:00,50.6,11.0,30.42,ENE,71,1.0,1.0,20,0.00,,,0.00,weatherlink.com 1.10,2013-03-01 09:23:00,
2013-03-01 01:38:00,51.6,12.0,30.43,ENE,71,0.0,0.0,20,0.00,,,0.00,weatherlink.com 1.10,2013-03-01 09:38:00,
2013-03-01 01:53:00,49.3,12.0,30.42,ENE,71,0.0,3.0,22,0.00,,,0.00,weatherlink.com 1.10,2013-03-01 09:53:00,
2013-03-01 02:08:00,49.3,11.0,30.42,ENE,71,2.0,3.0,21,0.00,,,0.00,weatherlink.com 1.10,2013-03-01 10:08:00,
2013-03-01 02:23:00,48.7,11.0,30.41,ENE,71,2.0,4.0,22,0.00,,,0.00,weatherlink.com 1.10,2013-03-01 10:23:00,
2013-03-01 02:38:00,49.2,11.0,30.41,ENE,71,0.0,3.0,21,0.00,,,0.00,weatherlink.com 1.10,2013-03-01 10:38:00,
2013-03-01 02:53:00,49.1,11.0,30.41,ENE,71,0.0,0.0,21,0.00,,,0.00,weatherlink.com 1.10,2013-03-01 10:53:00,
2013-03-01 03:08:00,48.7,11.0,30.40,ENE,71,0.0,3.0,22,0.00,,,0.00,weatherlink.com 1.10,2013-03-01 11:08:00,
2013-03-01 03:23:00,47.8,11.0,30.41,ENE,71,2.0,4.0,23,0.00,,,0.00,weatherlink.com 1.10,2013-03-01 11:23:00,
2013-03-01 03:38:00,48.2,11.0,30.41,ENE,71,3.0,4.0,22,0.00,,,0.00,weatherlink.com 1.10,2013-03-01 11:38:00,
2013-03-01 03:53:00,48.4,11.0,30.41,ENE,71,3.0,4.0,22,0.00,,,0.00,weatherlink.com 1.10,2013-03-01 11:53:00,
2013-03-01 04:08:00,48.1,12.0,30.42,ENE,72,4.0,5.0,23,0.00,,,0.00,weatherlink.com 1.10,2013-03-01 12:08:00,
2013-03-01 04:23:00,47.8,11.0,30.41,ENE,72,5.0,7.0,23,0.00,,,0.00,weatherlink.com 1.10,2013-03-01 12:23:00,
2013-03-01 04:38:00,48.2,12.0,30.42,ENE,73,4.0,7.0,23,0.00,,,0.00,weatherlink.com 1.10,2013-03-01 12:38:00,
2013-03-01 04:53:00,48.3,11.0,30.42,ENE,73,5.0,7.0,22,0.00,,,0.00,weatherlink.com 1.10,2013-03-01 12:53:00,
2013-03-01 05:08:00,49.0,11.0,30.42,ENE,73,2.0,4.0,22,0.00,,,0.00,weatherlink.com 1.10,2013-03-01 13:08:00,
2013-03-01 05:23:00,48.6,11.0,30.42,ENE,73,3.0,5.0,22,0.00,,,0.00,weatherlink.com 1.10,2013-03-01 13:23:00,
2013-03-01 05:38:00,49.6,11.0,30.43,ENE,73,2.0,5.0,21,0.00,,,0.00,weatherlink.com 1.10,2013-03-01 13:38:00,
2013-03-01 05:53:00,48.9,11.0,30.42,ENE,73,2.0,4.0,22,0.00,,,0.00,weatherlink.com 1.10,2013-03-01 13:53:00,
2013-03-01 06:08:00,50.7,11.0,30.42,ENE,73,2.0,3.0,20,0.00,,,0.00,weatherlink.com 1.10,2013-03-01 14:08:00,
2013-03-01 06:23:00,49.9,11.0,30.42,ENE,73,3.0,3.0,21,0.00,,,0.00,weatherlink.com 1.10,2013-03-01 14:23:00,
2013-03-01 06:38:00,49.5,12.0,30.43,ENE,73,3.0,4.0,22,0.00,,,0.00,weatherlink.com 1.10,2013-03-01 14:38:00,
2013-03-01 06:53:00,51.7,10.0,30.43,ENE,73,0.0,0.0,19,0.00,,,0.00,weatherlink.com 1.10,2013-03-01 14:53:00,
2013-03-01 07:08:00,52.5,12.0,30.44,ENE,73,2.0,3.0,20,0.00,,,0.00,weatherlink.com 1.10,2013-03-01 15:08:00,
2013-03-01 07:23:00,52.9,13.0,30.45,ENE,73,2.0,3.0,20,0.00,,,0.00,weatherlink.com 1.10,2013-03-01 15:23:00,
2013-03-01 07:38:00,52.4,16.0,30.45,ENE,73,1.0,3.0,24,0.00,,,0.00,weatherlink.com 1.10,2013-03-01 15:38:00,
2013-03-01 07:53:00,52.9,16.0,30.46,ENE,73,3.0,4.0,23,0.00,,,0.00,weatherlink.com 1.10,2013-03-01 15:53:00,
2013-03-01 08:08:00,53.1,16.0,30.45,ENE,72,3.0,5.0,23,0.00,,,0.00,weatherlink.com 1.10,2013-03-01 16:08:00,
2013-03-01 08:23:00,54.1,15.0,30.45,ENE,71,0.0,4.0,21,0.00,,,0.00,weatherlink.com 1.10,2013-03-01 16:23:00,
2013-03-01 08:38:00,55.1,15.0,30.45,ENE,71,2.0,5.0,20,0.00,,,0.00,weatherlink.com 1.10,2013-03-01 16:38:00,
2013-03-01 08:53:00,55.3,15.0,30.44,ENE,69,0.0,5.0,20,0.00,,,0.00,weatherlink.com 1.10,2013-03-01 16:53:00,
2013-03-01 09:08:00,56.1,16.0,30.43,North,5,4.0,5.0,21,0.00,,,0.00,weatherlink.com 1.10,2013-03-01 17:08:00,
2013-03-01 09:23:00,56.8,18.0,30.43,NNE,17,6.0,9.0,22,0.00,,,0.00,weatherlink.com 1.10,2013-03-01 17:23:00,
2013-03-01 09:38:00,57.4,21.0,30.43,NNE,32,3.0,9.0,24,0.00,,,0.00,weatherlink.com 1.10,2013-03-01 17:38:00,
2013-03-01 09:53:00,57.5,21.0,30.43,NE,42,8.0,12.0,24,0.00,,,0.00,weatherlink.com 1.10,2013-03-01 17:53:00,
2013-03-01 10:08:00,57.7,21.0,30.43,NE,55,6.0,9.0,24,0.00,,,0.00,weatherlink.com 1.10,2013-03-01 18:08:00,
2013-03-01 10:23:00,58.1,21.0,30.42,NE,37,7.0,11.0,24,0.00,,,0.00,weatherlink.com 1.10,2013-03-01 18:23:00,
2013-03-01 10:37:00,59.2,21.0,30.42,NE,49,4.0,8.0,23,0.00,,,0.00,weatherlink.com 1.10,2013-03-01 18:37:00,
2013-03-01 10:52:00,59.5,20.0,30.42,NW,314,0.0,8.0,22,0.00,,,0.00,weatherlink.com 1.10,2013-03-01 18:52:00,
2013-03-01 11:08:00,60.2,21.0,30.41,NNW,337,0.0,8.0,22,0.00,,,0.00,weatherlink.com 1.10,2013-03-01 19:08:00,
2013-03-01 11:24:00,61.3,22.0,30.40,NNE,16,2.0,10.0,22,0.00,,,0.00,weatherlink.com 1.10,2013-03-01 19:24:00,
2013-03-01 11:39:00,62.3,24.0,30.39,NE,55,5.0,8.0,23,0.00,,,0.00,weatherlink.com 1.10,2013-03-01 19:39:00,
2013-03-01 11:54:00,62.4,23.0,30.38,NNE,14,8.0,12.0,22,0.00,,,0.00,weatherlink.com 1.10,2013-03-01 19:54:00,
2013-03-01 12:09:00,63.3,24.0,30.37,North,5,6.0,12.0,22,0.00,,,0.00,weatherlink.com 1.10,2013-03-01 20:09:00,
2013-03-01 12:24:00,63.6,25.0,30.36,NE,46,7.0,14.0,23,0.00,,,0.00,weatherlink.com 1.10,2013-03-01 20:24:00,
2013-03-01 12:39:00,63.9,24.0,30.35,NNW,342,9.0,13.0,22,0.00,,,0.00,weatherlink.com 1.10,2013-03-01 20:39:00,
2013-03-01 12:54:00,64.4,25.0,30.34,NNW,338,12.0,15.0,22,0.00,,,0.00,weatherlink.com 1.10,2013-03-01 20:54:00,
2013-03-01 13:09:00,65.5,26.0,30.34,NE,46,7.0,10.0,22,0.00,,,0.00,weatherlink.com 1.10,2013-03-01 21:09:00,
2013-03-01 13:24:00,66.2,25.0,30.33,ENE,63,4.0,11.0,21,0.00,,,0.00,weatherlink.com 1.10,2013-03-01 21:24:00,
2013-03-01 13:39:00,66.7,24.0,30.32,NNW,347,7.0,9.0,20,0.00,,,0.00,weatherlink.com 1.10,2013-03-01 21:39:00,
2013-03-01 13:54:00,66.9,24.0,30.32,NNE,31,9.0,12.0,20,0.00,,,0.00,weatherlink.com 1.10,2013-03-01 21:54:00,
2013-03-01 14:09:00,66.5,25.0,30.31,North,355,6.0,12.0,21,0.00,,,0.00,weatherlink.com 1.10,2013-03-01 22:09:00,
2013-03-01 14:24:00,67.1,25.0,30.30,NNW,348,10.0,10.0,20,0.00,,,0.00,weatherlink.com 1.10,2013-03-01 22:24:00,
2013-03-01 14:38:00,67.7,25.0,30.30,NNE,30,6.0,12.0,20,0.00,,,0.00,weatherlink.com 1.10,2013-03-01 22:38:00,
2013-03-01 14:54:00,68.2,26.0,30.30,NE,38,5.0,9.0,20,0.00,,,0.00,weatherlink.com 1.10,2013-03-01 22:54:00,
2013-03-01 15:09:00,68.2,24.0,30.29,NNW,327,8.0,11.0,19,0.00,,,0.00,weatherlink.com 1.10,2013-03-01 23:09:00,
2013-03-01 15:24:00,68.2,24.0,30.29,NNE,31,3.0,9.0,19,0.00,,,0.00,weatherlink.com 1.10,2013-03-01 23:24:00,
2013-03-01 15:39:00,68.4,26.0,30.29,NNE,19,3.0,12.0,20,0.00,,,0.00,weatherlink.com 1.10,2013-03-01 23:39:00,
2013-03-01 15:54:00,68.4,26.0,30.29,NNE,31,6.0,10.0,20,0.00,,,0.00,weatherlink.com 1.10,2013-03-01 23:54:00,
2013-03-01 16:09:00,68.2,24.0,30.28,NNW,345,6.0,11.0,19,0.00,,,0.00,weatherlink.com 1.10,2013-03-02 00:09:00,
2013-03-01 16:24:00,68.3,24.0,30.28,NNE,16,4.0,10.0,19,0.00,,,0.00,weatherlink.com 1.10,2013-03-02 00:24:00,
2013-03-01 16:39:00,68.1,25.0,30.28,NE,50,4.0,8.0,20,0.00,,,0.00,weatherlink.com 1.10,2013-03-02 00:39:00,
2013-03-01 16:54:00,67.7,25.0,30.27,NE,40,5.0,7.0,20,0.00,,,0.00,weatherlink.com 1.10,2013-03-02 00:54:00,
2013-03-01 17:09:00,67.5,25.0,30.27,NNE,33,4.0,6.0,20,0.00,,,0.00,weatherlink.com 1.10,2013-03-02 01:09:00,
2013-03-01 17:24:00,67.1,25.0,30.27,NNE,32,0.0,3.0,20,0.00,,,0.00,weatherlink.com 1.10,2013-03-02 01:24:00,
2013-03-01 17:39:00,66.0,25.0,30.27,NNE,32,1.0,4.0,21,0.00,,,0.00,weatherlink.com 1.10,2013-03-02 01:39:00,
2013-03-01 17:54:00,65.2,25.0,30.27,East,84,2.0,3.0,22,0.00,,,0.00,weatherlink.com 1.10,2013-03-02 01:54:00,
2013-03-01 18:09:00,64.7,25.0,30.27,East,84,0.0,2.0,22,0.00,,,0.00,weatherlink.com 1.10,2013-03-02 02:09:00,
2013-03-01 18:24:00,63.7,25.0,30.27,East,84,0.0,0.0,23,0.00,,,0.00,weatherlink.com 1.10,2013-03-02 02:24:00,
2013-03-01 18:39:00,63.5,25.0,30.27,East,84,3.0,5.0,23,0.00,,,0.00,weatherlink.com 1.10,2013-03-02 02:39:00,
2013-03-01 18:54:00,63.7,25.0,30.27,East,84,3.0,6.0,23,0.00,,,0.00,weatherlink.com 1.10,2013-03-02 02:54:00,
2013-03-01 19:09:00,63.5,25.0,30.27,East,84,3.0,6.0,23,0.00,,,0.00,weatherlink.com 1.10,2013-03-02 03:09:00,
2013-03-01 19:24:00,63.9,24.0,30.27,East,84,2.0,5.0,22,0.00,,,0.00,weatherlink.com 1.10,2013-03-02 03:24:00,
2013-03-01 19:39:00,64.1,24.0,30.27,East,84,1.0,2.0,22,0.00,,,0.00,weatherlink.com 1.10,2013-03-02 03:39:00,
2013-03-01 19:54:00,61.5,25.0,30.27,East,84,2.0,3.0,25,0.00,,,0.00,weatherlink.com 1.10,2013-03-02 03:54:00,
2013-03-01 20:09:00,61.6,25.0,30.27,East,84,2.0,3.0,25,0.00,,,0.00,weatherlink.com 1.10,2013-03-02 04:09:00,
2013-03-01 20:24:00,59.6,26.0,30.28,East,84,0.0,0.0,28,0.00,,,0.00,weatherlink.com 1.10,2013-03-02 04:24:00,
2013-03-01 20:39:00,60.6,25.0,30.28,East,84,0.0,0.0,26,0.00,,,0.00,weatherlink.com 1.10,2013-03-02 04:39:00,
2013-03-01 20:54:00,61.4,25.0,30.28,East,84,2.0,2.0,25,0.00,,,0.00,weatherlink.com 1.10,2013-03-02 04:54:00,
2013-03-01 21:09:00,61.0,25.0,30.28,East,84,3.0,5.0,25,0.00,,,0.00,weatherlink.com 1.10,2013-03-02 05:09:00,
2013-03-01 21:24:00,61.0,25.0,30.29,East,84,0.0,3.0,25,0.00,,,0.00,weatherlink.com 1.10,2013-03-02 05:24:00,
2013-03-01 21:39:00,60.9,25.0,30.29,East,84,2.0,5.0,25,0.00,,,0.00,weatherlink.com 1.10,2013-03-02 05:39:00,
2013-03-01 21:55:00,61.1,25.0,30.29,East,84,2.0,5.0,25,0.00,,,0.00,weatherlink.com 1.10,2013-03-02 05:55:00,
2013-03-01 22:10:00,60.5,25.0,30.29,East,84,5.0,5.0,26,0.00,,,0.00,weatherlink.com 1.10,2013-03-02 06:10:00,
2013-03-01 22:25:00,59.2,27.0,30.30,East,84,5.0,7.0,29,0.00,,,0.00,weatherlink.com 1.10,2013-03-02 06:25:00,
2013-03-01 22:40:00,54.3,26.0,30.30,NNW,338,0.0,0.0,34,0.00,,,0.00,weatherlink.com 1.10,2013-03-02 06:40:00,
2013-03-01 22:55:00,53.7,26.0,30.30,NNW,338,0.0,0.0,35,0.00,,,0.00,weatherlink.com 1.10,2013-03-02 06:55:00,
2013-03-01 23:10:00,53.8,26.0,30.30,NNW,338,0.0,0.0,34,0.00,,,0.00,weatherlink.com 1.10,2013-03-02 07:10:00,
2013-03-01 23:25:00,53.6,26.0,30.30,NNW,339,0.0,2.0,34,0.00,,,0.00,weatherlink.com 1.10,2013-03-02 07:25:00,
2013-03-01 23:39:00,52.9,26.0,30.30,NNW,338,0.0,1.0,35,0.00,,,0.00,weatherlink.com 1.10,2013-03-02 07:39:00,